GFSSW_sfc_temp_129.txt.gz
Temp
66 65 65 65 65 65 65 65 65 64 64 65 65 65 65 65 64 72 70 76 73 71 70 77 80 79 79 76 77 77 69 66 69 71 71 77 74 78 79 77 79 79 79 81 79
65 65 65 65 65 65 65 65 64 64 64 64 65 64 64 64 73 71 77 74 72 70 76 75 73 76 73 74 75 72 68 70 78 78 74 76 77 76 75 75 75 75 76 80 76
64 64 65 65 64 65 65 64 64 63 63 64 64 64 64 68 69 72 74 72 72 71 80 79 79 74 70 73 72 74 69 74 73 76 80 76 76 80 77 72 79 76 75 76 72
63 63 64 64 64 64 64 63 63 63 63 63 63 63 63 70 57 75 71 71 71 78 78 75 74 68 67 65 74 68 71 75 72 71 75 73 78 73 77 76 79 82 82 76 70
62 62 63 63 63 64 64 63 63 62 62 62 63 63 66 64 69 75 68 70 76 77 75 73 70 68 65 70 70 69 69 71 71 70 74 74 72 74 74 79 78 79 79 75 74
61 62 62 62 63 63 63 63 62 62 62 63 63 63 63 60 74 77 75 73 78 77 76 76 74 74 70 69 69 72 69 67 70 70 69 71 70 70 77 79 76 75 76 77 77
61 61 61 62 63 63 63 62 62 62 62 63 63 69 65 68 75 76 74 75 76 77 74 78 79 73 72 64 70 70 63 66 68 68 66 72 65 67 75 75 75 75 77 78 78
61 60 61 61 62 62 62 62 61 61 62 63 63 67 64 71 77 72 75 73 77 77 76 79 78 74 71 71 67 65 67 60 65 66 64 66 63 73 74 73 74 76 78 76 78
60 60 60 61 61 62 62 61 61 62 63 63 64 65 62 68 68 74 76 70 73 75 75 76 75 70 67 64 61 61 58 61 59 67 65 65 65 71 70 71 73 76 77 77 77
59 59 60 61 61 61 60 61 61 62 65 69 69 60 64 62 68 71 74 73 70 69 68 69 69 63 65 62 52 56 58 61 60 61 61 62 64 68 70 69 72 75 77 76 76
59 60 60 60 61 61 60 59 55 54 61 59 60 61 63 66 70 68 72 71 71 68 60 65 59 56 62 65 68 66 62 58 63 59 61 62 64 69 73 70 70 73 74 76 76
59 59 60 61 61 61 62 59 62 66 51 59 59 61 64 67 60 64 71 65 63 58 65 58 54 65 68 67 62 63 60 59 56 58 57 59 59 67 71 70 71 74 75 76 75
60 59 60 60 61 60 61 64 66 69 53 52 58 61 60 62 62 60 66 67 62 59 58 57 61 66 62 59 59 61 60 57 58 56 58 57 57 62 68 70 71 72 73 72 71
59 59 60 60 56 60 58 66 65 65 45 46 51 58 59 63 57 65 67 66 61 58 59 60 61 60 58 57 61 54 62 61 55 55 52 56 52 62 67 63 65 67 66 69 66
58 59 59 60 59 54 62 64 65 60 29 52 52 66 61 58 59 57 65 63 56 59 59 56 54 54 55 58 63 58 62 60 58 56 54 53 51 61 63 60 64 66 65 64 64
58 59 59 58 61 62 63 62 59 40 27 44 53 50 52 57 56 57 59 64 63 56 58 57 58 61 61 58 61 59 57 57 57 56 44 55 53 57 61 62 67 66 63 61 59
58 58 58 61 55 63 62 55 37 29 50 42 44 50 52 50 51 56 54 52 52 48 49 52 53 55 58 53 57 59 54 43 41 42 41 50 48 57 66 61 63 61 59 58 57
57 57 58 59 61 61 58 46 29 41 45 50 50 48 47 51 50 51 52 49 57 58 54 46 42 52 57 58 52 54 56 46 34 37 44 43 42 55 64 60 56 62 60 57 55
56 55 54 53 60 60 50 33 35 46 53 46 48 44 45 48 49 47 50 51 56 59 52 49 48 53 56 57 60 53 49 59 43 33 40 48 53 60 55 55 55 55 53 53 55
53 51 51 55 58 54 43 38 46 56 55 50 43 48 42 44 45 47 48 55 54 59 63 55 45 49 49 55 57 57 61 46 48 33 34 48 48 52 51 54 54 53 52 54 55
50 47 51 56 54 45 34 40 50 53 56 50 49 46 48 45 48 45 50 55 60 58 60 58 52 41 48 48 51 50 50 53 54 51 40 39 49 65 63 59 57 56 55 54 53
40 35 51 54 38 39 35 48 53 49 54 54 54 51 50 49 45 47 49 54 61 58 50 56 50 39 45 49 51 56 55 54 45 42 47 42 48 58 59 63 61 57 56 55 54
33 34 45 51 32 32 40 47 51 48 48 49 48 53 53 49 42 49 52 54 59 56 53 52 43 32 37 46 49 47 52 55 56 50 37 38 48 55 54 57 60 57 55 53 52
33 32 35 42 46 40 37 42 43 52 50 51 49 52 49 47 51 47 50 48 54 56 50 54 47 43 40 47 51 42 47 50 52 38 43 45 51 55 53 53 54 55 53 52 51
33 32 33 33 36 42 43 42 40 41 50 51 46 50 49 42 45 45 50 45 48 49 53 53 36 44 49 52 49 46 45 48 45 49 43 50 51 58 61 57 56 57 53 51 49
34 33 33 34 39 40 40 37 39 43 45 43 47 48 51 48 47 45 49 47 46 47 51 54 34 43 35 46 46 39 47 49 48 49 52 53 53 65 68 65 59 55 52 49 49
38 37 36 33 36 36 36 38 41 46 42 50 49 48 46 51 55 55 57 54 53 48 46 45 36 34 34 37 37 33 41 48 48 52 53 46 55 62 61 58 58 55 52 51 50

GFSSW_sfc_temp_132.txt.gz
Temp
66 65 65 65 65 65 64 65 65 64 64 65 65 65 65 65 65 68 67 74 74 71 70 74 76 76 74 69 70 69 56 56 60 62 62 69 65 68 69 68 68 70 67 72 72
65 65 65 65 65 64 64 64 64 64 64 64 65 65 64 65 70 68 74 72 73 71 73 71 69 73 67 67 67 62 56 61 69 68 65 68 68 66 64 66 64 65 69 70 68
64 64 65 65 64 64 64 64 63 63 63 64 64 64 64 66 66 69 74 72 71 71 75 75 75 71 63 66 64 64 59 65 68 69 72 69 67 70 65 60 66 63 66 66 65
62 63 64 64 64 64 64 64 63 62 63 63 63 64 63 68 54 71 71 71 71 74 73 71 69 64 61 59 67 59 66 69 66 67 70 66 69 63 65 62 70 71 70 67 63
60 61 63 63 64 64 64 64 63 62 62 63 63 63 65 62 65 73 68 70 73 73 71 69 66 63 60 64 63 59 62 66 65 64 68 69 65 64 63 67 69 72 71 68 64
59 60 62 62 63 64 64 63 63 62 62 63 63 63 63 57 72 75 73 70 74 72 71 71 69 69 62 63 62 64 65 63 65 64 64 64 62 61 66 67 66 68 67 67 68
60 59 61 62 62 63 63 63 62 62 62 63 63 64 62 64 74 74 73 71 74 74 70 73 73 68 66 58 64 63 58 60 60 62 59 62 56 59 65 67 65 65 66 68 69
60 60 60 61 62 62 62 62 62 62 62 63 62 62 58 70 74 71 73 70 72 73 71 74 73 67 63 64 61 58 56 49 58 60 57 56 53 63 65 65 63 64 63 66 69
60 59 59 61 61 62 62 61 61 62 63 63 61 62 58 67 67 71 71 67 70 71 70 75 69 63 62 55 50 52 47 51 52 61 58 56 54 60 65 63 62 64 65 65 66
60 58 60 61 62 61 61 61 61 62 63 68 69 56 62 60 66 69 71 70 66 65 64 63 60 55 55 51 43 46 46 53 50 55 54 53 54 59 61 61 60 62 63 64 66
59 59 59 60 61 61 60 57 53 52 59 55 56 59 62 64 68 65 68 67 65 61 53 57 51 47 53 56 58 54 53 52 52 56 52 52 55 59 60 58 58 60 62 62 65
59 60 60 60 61 62 61 55 58 61 48 60 60 62 64 64 58 62 68 59 57 51 57 51 47 57 61 60 57 53 52 49 50 54 50 53 53 58 60 59 61 61 61 63 62
59 60 60 60 60 60 59 59 67 66 51 52 58 59 58 61 58 57 63 60 55 52 54 49 54 62 59 55 54 52 50 48 49 49 51 46 47 51 58 61 62 62 62 59 62
59 59 60 60 55 59 56 64 63 62 42 44 49 56 58 60 54 64 64 61 57 53 54 53 58 57 54 53 55 48 55 54 49 45 40 47 36 48 54 56 58 59 58 58 57
59 59 59 60 58 54 60 63 63 57 25 47 49 64 59 55 55 54 60 58 53 54 54 49 51 51 49 53 56 50 56 52 49 44 42 40 37 46 53 50 53 56 56 57 56
59 58 59 57 58 61 63 61 57 38 26 41 49 48 49 53 54 54 56 58 57 53 53 49 53 54 53 54 56 55 51 51 47 45 33 43 41 42 46 53 55 56 56 55 52
58 58 57 60 53 63 60 53 33 27 48 41 42 47 49 47 48 51 50 47 45 41 41 46 47 48 53 49 51 51 46 32 31 30 30 40 39 47 52 52 55 55 52 51 51
57 57 57 60 62 61 56 43 28 36 42 49 47 47 44 48 47 48 47 45 50 49 45 39 35 46 51 50 45 47 47 34 27 26 30 35 33 44 49 49 50 55 52 50 49
57 55 54 55 61 59 49 31 33 40 49 46 46 41 43 47 47 46 46 46 51 52 43 42 40 49 51 51 54 45 43 48 35 25 27 35 42 51 49 48 47 49 48 47 47
53 52 51 56 58 53 42 36 43 51 52 48 39 45 39 42 42 43 45 51 50 55 56 49 36 45 46 50 50 49 53 40 36 22 23 33 35 41 43 47 47 46 45 46 47
50 46 51 57 55 44 34 38 47 55 54 47 44 43 45 41 45 42 45 49 55 53 56 50 44 37 45 43 45 44 43 46 46 40 29 25 35 51 52 50 48 47 47 46 46
42 38 51 54 38 39 35 44 51 49 54 50 51 48 46 45 43 43 45 50 58 56 49 49 42 32 39 45 47 49 48 49 35 33 36 33 36 49 49 51 51 49 49 47 47
34 36 49 51 32 33 39 45 50 48 48 49 47 50 51 46 41 46 47 51 56 55 50 49 37 27 33 41 43 40 45 48 47 40 30 27 40 49 48 49 49 48 46 46 45
35 32 35 43 45 40 36 39 42 50 48 51 50 50 47 46 48 44 45 46 51 54 50 53 41 38 35 40 43 37 42 46 44 31 39 37 46 41 44 46 47 47 45 44 44
32 32 32 33 37 42 42 42 40 41 48 50 46 48 46 40 44 42 46 44 47 47 50 49 32 37 43 43 41 38 38 42 40 44 37 45 44 52 47 47 47 46 46 44 45
33 32 33 37 40 40 42 40 40 42 46 43 43 47 49 43 45 41 47 43 42 44 48 49 31 35 29 40 40 34 41 43 45 46 46 47 45 56 56 52 48 49 47 46 45
35 34 34 37 36 37 37 40 43 45 46 50 48 46 46 48 52 51 53 51 48 44 44 42 32 30 23 33 35 30 38 41 43 48 47 41 51 56 54 51 49 47 47 47 47

GFSSW_sfc_temp_135.txt.gz
Temp
65 65 65 65 65 65 65 65 65 64 64 65 65 65 65 65 65 66 63 72 73 71 70 73 74 72 70 65 66 63 52 49 53 56 57 62 61 62 64 64 62 63 63 67 72
62 65 65 65 64 64 65 65 64 64 64 64 65 65 64 65 64 63 72 73 72 70 71 69 67 70 65 64 63 58 50 54 61 62 60 63 64 64 62 60 58 59 64 70 67
62 61 64 65 64 64 64 64 64 63 63 64 64 64 64 64 61 64 73 72 71 71 73 71 72 69 61 62 61 60 55 60 64 64 68 63 62 64 60 55 59 57 60 62 62
61 61 63 64 64 64 64 64 63 63 63 63 63 64 64 62 52 67 71 71 70 71 71 68 66 62 58 58 63 57 62 62 64 64 66 63 64 60 60 61 65 63 63 61 62
60 60 61 63 64 64 64 64 63 63 63 63 63 63 61 57 60 68 68 69 69 69 68 66 62 62 58 60 60 57 57 62 62 62 63 66 61 61 59 58 64 65 63 61 62
60 59 59 62 63 64 64 64 63 62 62 63 63 63 56 52 69 69 67 66 68 67 66 66 65 67 61 59 60 58 60 59 62 60 63 61 57 60 62 60 61 64 61 60 61
59 59 59 61 63 63 63 63 62 62 62 61 64 63 58 58 69 67 68 65 67 68 65 69 69 64 61 57 62 61 55 56 57 59 58 59 56 57 62 61 61 61 60 61 61
58 59 59 60 62 63 63 63 62 62 61 61 61 61 55 65 64 67 66 65 68 68 68 72 71 66 61 60 59 56 53 46 54 57 56 57 50 61 62 61 59 59 58 61 62
57 59 59 59 61 62 62 62 61 62 63 62 56 54 53 67 62 65 65 63 65 65 66 73 68 61 60 52 46 47 43 46 49 57 54 53 51 58 60 59 58 58 58 60 61
57 59 59 59 61 61 61 61 61 62 62 66 61 50 53 56 63 65 64 65 60 60 60 59 55 50 50 46 38 41 44 45 47 53 52 50 52 56 57 58 58 56 59 59 61
57 59 59 59 61 61 60 56 50 49 54 49 50 53 57 63 65 60 66 62 60 54 47 51 46 41 46 52 55 51 51 46 48 52 52 49 50 54 57 54 54 55 57 57 59
58 60 60 60 61 62 61 52 55 55 45 56 58 58 60 63 54 60 65 55 52 45 50 46 41 50 55 55 55 52 48 44 46 51 51 47 49 53 53 54 56 57 58 57 58
59 59 60 59 60 60 59 57 65 64 48 50 56 55 55 60 53 54 62 55 50 46 45 44 49 56 54 51 51 49 47 44 47 48 47 44 46 49 54 55 57 57 58 58 58
59 58 59 59 55 57 55 62 66 60 38 42 48 54 56 57 52 60 62 58 51 47 47 46 53 53 50 50 53 46 52 50 47 45 40 43 35 44 50 55 54 57 57 58 56
59 59 59 59 56 52 60 60 59 56 24 44 47 61 56 53 53 53 57 56 48 49 47 45 49 48 47 50 54 49 52 49 46 42 40 37 35 41 46 47 52 54 55 55 54
58 58 58 57 57 60 61 60 56 36 24 39 47 46 48 50 51 52 54 55 54 50 47 45 50 51 51 52 55 53 49 47 44 41 32 39 38 38 44 51 49 51 52 52 51
58 57 57 58 52 61 60 51 33 25 43 37 38 45 47 43 45 47 47 44 42 39 37 42 44 46 51 49 50 49 43 30 31 29 29 36 35 44 48 51 53 53 51 48 47
57 57 57 57 60 59 54 44 25 37 38 45 43 44 42 46 43 44 45 43 44 44 39 35 34 44 48 48 45 46 45 32 26 26 31 35 32 43 49 47 47 49 47 46 45
57 55 54 54 60 57 45 31 31 38 44 42 43 39 38 45 43 43 42 45 48 46 39 37 36 46 47 50 54 44 40 46 33 22 27 34 39 48 48 49 45 46 45 44 44
53 51 52 55 59 50 40 34 37 47 47 45 36 41 36 40 39 40 42 48 46 49 50 45 34 42 44 49 48 47 52 39 33 23 22 31 33 40 43 47 46 45 44 43 43
51 46 52 56 54 43 33 37 43 50 51 44 39 38 41 39 42 40 41 46 52 51 52 47 39 36 44 42 41 43 41 43 42 35 28 25 34 45 51 50 48 46 45 44 43
48 37 52 54 39 39 35 40 50 47 51 46 46 44 44 44 40 42 39 47 56 55 45 46 38 31 37 43 46 46 45 45 36 32 34 32 34 47 47 47 49 48 45 42 42
34 37 51 52 33 33 39 41 48 45 48 45 43 47 49 44 38 42 44 51 54 53 49 47 35 26 33 40 42 40 42 46 43 36 30 27 40 45 45 45 45 45 42 42 41
35 32 35 45 43 39 37 39 39 46 46 49 47 49 47 44 44 41 44 46 51 53 49 52 38 34 31 37 40 37 41 44 44 30 35 35 46 41 44 47 44 42 41 41 42
32 32 32 33 36 41 42 41 39 38 46 49 45 47 45 38 41 40 41 43 46 48 49 47 29 34 37 40 40 39 39 41 41 46 37 46 41 48 45 46 46 44 42 41 41
32 32 32 37 41 40 41 39 39 41 44 43 42 43 44 39 43 38 41 40 41 42 45 45 27 32 26 37 38 37 40 44 46 46 43 42 41 52 51 47 42 45 43 43 42
34 34 35 37 37 37 37 39 42 44 42 49 46 44 43 45 49 49 51 48 46 48 42 41 30 25 20 29 33 27 38 38 42 47 47 40 50 52 47 47 46 44 44 44 44

GFSSW_sfc_temp_141.txt.gz
Temp
62 63 63 63 65 65 65 66 65 64 64 64 65 65 65 65 66 64 61 68 70 70 69 71 70 69 68 63 62 56 48 45 50 51 53 57 56 58 57 58 55 58 58 61 63
62 61 62 62 64 65 65 65 65 64 64 64 64 63 64 65 63 60 69 72 72 70 70 68 66 67 61 62 59 55 46 50 57 55 56 58 59 60 57 53 52 55 60 64 64
61 60 61 62 62 64 65 65 64 64 63 63 63 61 61 62 61 60 71 72 71 70 72 71 69 67 58 59 57 55 50 53 59 61 61 60 57 59 56 52 56 57 57 61 62
60 59 60 61 61 64 65 65 63 63 63 62 62 60 59 57 48 65 70 71 70 70 69 67 64 61 57 54 59 54 56 56 60 60 61 58 60 57 58 61 63 61 63 61 61
58 59 58 59 60 63 64 65 64 63 62 61 61 61 58 50 54 67 67 69 68 68 66 62 59 58 56 59 60 55 53 57 59 60 56 60 57 58 56 57 59 61 63 61 62
58 58 58 58 59 63 64 64 64 62 62 61 60 60 53 45 68 67 65 65 66 66 63 63 61 63 57 57 56 59 54 55 57 58 56 57 54 59 58 55 58 60 60 61 62
58 57 58 58 59 59 63 64 64 62 62 63 62 60 53 53 66 66 64 63 64 65 61 62 64 61 58 54 61 60 55 55 53 56 54 54 52 55 54 55 56 58 59 59 61
58 57 57 58 58 59 62 63 63 62 62 63 64 60 52 64 63 64 62 61 64 65 64 65 65 61 57 58 57 54 51 47 50 54 52 54 48 57 54 55 54 56 56 57 58
57 56 56 55 58 58 61 63 61 61 62 62 58 55 53 65 61 63 63 60 61 61 62 68 63 56 55 50 45 45 41 43 46 52 51 50 49 54 54 53 53 54 56 58 58
57 57 56 57 58 58 61 62 60 58 59 63 59 52 56 54 61 62 62 63 59 60 58 56 50 47 45 45 41 40 41 43 45 52 48 46 50 51 50 52 53 51 52 53 55
56 57 56 56 56 59 60 56 49 47 51 47 48 50 53 60 64 60 61 60 58 54 45 47 44 39 43 48 49 47 48 47 44 49 48 48 49 51 49 47 49 49 50 51 55
56 57 57 57 57 59 58 52 54 52 44 53 52 54 57 60 54 58 62 54 50 43 46 43 40 46 50 50 48 46 46 44 45 47 48 44 48 49 49 51 51 52 50 51 50
56 56 56 57 57 56 55 56 60 60 46 48 52 52 53 57 52 52 59 51 47 43 42 41 45 50 49 46 46 43 44 42 45 44 44 43 45 46 51 49 51 51 53 53 56
56 55 56 57 51 55 53 60 63 62 38 39 45 51 53 55 49 54 60 56 47 44 44 43 47 48 43 44 46 39 48 48 45 44 39 42 34 43 47 50 50 53 51 54 54
55 55 55 56 54 50 55 63 61 53 26 42 45 59 55 53 51 51 55 54 45 43 44 42 43 42 41 45 48 45 48 47 42 39 37 35 35 41 41 45 48 54 56 56 58
54 55 55 54 51 57 59 61 55 34 23 36 45 44 46 49 48 52 48 56 53 47 45 44 46 48 48 47 50 48 44 43 39 38 32 37 37 37 41 48 49 52 56 59 56
54 54 53 56 48 61 59 52 32 27 41 34 38 44 44 42 43 46 41 43 40 35 35 38 39 42 46 44 44 43 41 30 30 28 30 33 33 42 46 49 51 53 54 52 49
53 53 53 55 57 57 51 39 26 33 34 40 41 44 39 41 41 45 42 39 47 43 36 34 32 42 44 44 40 40 42 30 23 24 30 33 32 41 49 55 50 51 49 48 45
52 49 51 54 56 55 43 30 31 36 39 38 40 37 33 40 40 41 40 42 47 45 38 34 35 41 44 46 50 41 37 42 31 18 24 31 36 45 47 48 48 48 45 47 45
45 48 49 56 54 50 38 37 35 45 44 43 35 40 33 38 36 40 39 46 45 49 52 41 36 39 41 45 44 45 49 38 30 21 21 29 31 37 44 51 47 46 45 44 41
44 43 53 56 52 42 33 37 38 48 47 42 35 37 40 37 40 39 39 44 51 47 44 42 39 34 41 40 39 40 38 38 39 33 26 22 31 41 53 53 50 49 47 43 41
42 37 53 53 37 35 34 40 45 45 48 41 42 40 42 42 37 40 38 43 55 49 44 45 37 29 36 40 44 42 44 44 37 30 30 30 32 43 45 46 49 49 48 45 43
36 35 52 50 31 32 39 42 44 44 46 42 39 42 47 43 35 41 41 49 53 51 47 45 34 26 32 39 39 39 39 42 38 34 28 27 34 44 44 45 45 48 45 44 42
34 32 38 45 41 38 35 38 37 47 46 44 41 45 44 41 41 38 39 45 50 52 48 49 37 36 33 41 41 37 40 40 41 30 31 34 37 45 45 46 44 45 44 43 42
32 32 32 34 32 39 40 40 38 38 44 44 40 45 42 37 37 36 39 41 46 47 47 47 34 34 35 36 43 39 39 42 43 47 40 46 41 48 47 47 46 45 42 42 42
32 31 32 36 40 36 39 37 40 39 41 42 41 44 45 37 42 34 38 38 40 39 44 42 27 32 27 35 37 36 41 42 45 47 46 42 40 47 49 43 44 47 45 44 43
34 33 34 36 36 36 36 38 43 45 41 49 45 41 39 41 47 46 49 46 45 44 41 38 30 28 20 27 32 29 37 41 44 47 45 39 47 48 46 45 46 48 47 47 47